Location: ?????????
(54.7630°N, 39.4991°E)
Time: 08:24:18
(UTC+00:00)

Cosmos 1733 Rocket - Pass Details

Date: 14 April 2026
Orbit: 597 x 619 km, 82.5° (Epoch: 9 May)

Event Time Altitude Azimuth Distance (km) Brightness Sun altitude
Exits shadow 17:43:48 10° 161° (SSE) 1,969 5.2 -11.1°
Reaches altitude 10° 17:43:48 10° 161° (SSE) 1,965 5.1 -11.1°
Maximum altitude 17:47:52 39° 92° (E) 924 3.6 -11.6°
Drops below altitude 10° 17:51:58 10° 24° (NNE) 1,992 5.8 -12.1°
Sets 17:54:18 0° 17° (NNE) 2,905 6.8 -12.4°
